Weather History for South St. Paul, MN

Change the Weather History Date:

Thursday, July 11, 2013

  Actual Average (KMSP) Record (KMSP)
Temperature  
Mean Temperature 74 °F 74 °F  
Max Temperature 86 °F 84 °F 106 °F (1936)
Min Temperature 64 °F 64 °F 49 °F (1945)
Degree Days  
Heating Degree Days 0 0  
Month to date heating degree days 0  
Since 1 June heating degree days 44  
Since 1 July heating degree days 0  
Cooling Degree Days 10 9  
Month to date cooling degree days 97  
Year to date cooling degree days 297  
Since 1 June cooling degree days 255  
Growing Degree Days 24 (Base 50)    
Moisture  
Dew Point 57 °F    
Average Humidity 55    
Maximum Humidity 83    
Minimum Humidity 30    
Precipitation  
Precipitation 0.00 in 0.13 in 3.75 in (1909)
Month to date precipitation 1.41  
Year to date precipitation 15.24  
Snow  
Snow 0.00 in 0.00 in 0.00 in ()
Month to date snowfall 0.0  
Since 1 June snowfall 0.0  
Since 1 July snowfall 0.0  
Snow Depth -    
Sea Level Pressure  
Sea Level Pressure 30.06 in    
Wind  
Wind Speed 3 mph (SSE)    
Max Wind Speed 12 mph    
Max Gust Speed 17 mph    
Visibility 9 miles    
Events      
T = Trace of Precipitation, MM = Missing Value Source: NWS Daily Summary

Daily Weather History Graph

Daily Weather History Graph

Search for Another Location

Airport:

Trip Planner

Search our weather history database for the weather conditions in past years. The results will help you decide how hot, cold, wet, or windy it might be!

Date:

Astronomy

Jul. 11, 2013 Rise Set
Actual Time 5:37 AM CDT 8:57 PM CDT
Civil Twilight 5:00 AM CDT 9:34 PM CDT
Nautical Twilight 4:13 AM CDT 10:21 PM CDT
Astronomical Twilight 3:14 AM CDT 11:20 PM CDT
Moon 9:06 AM CDT (7/11) 10:26 PM CDT (7/11)
Length of Visible Light 16h 33m
Length of Day
15h 20m
Waxing Crescent, 11% of the Moon is Illuminated
Jul 11
Waxing Crescent
Jul 15
First Quarter
Jul 22
Full
Jul 29
Last Quarter
Aug 6
New

Hourly Weather History & Observations

Time (CDT) Temp. Heat Index Dew Point Humidity Pressure Visibility Wind Dir Wind Speed Gust Speed Precip Events Conditions
12:13 AM 69.8 °F - 59.5 °F 70% 30.06 in 10.0 mi Calm Calm - N/A   Clear
12:33 AM 69.3 °F - 59.5 °F 71% 30.06 in 10.0 mi Calm Calm - N/A   Clear
12:53 AM 69.3 °F - 59.7 °F 72% 30.07 in 10.0 mi Calm Calm - N/A   Clear
1:13 AM 68.7 °F - 59.2 °F 72% 30.07 in 10.0 mi Calm Calm - N/A   Clear
1:33 AM 68.5 °F - 59.2 °F 72% 30.07 in 10.0 mi Calm Calm - N/A   Clear
1:53 AM 68.0 °F - 58.6 °F 72% 30.07 in 10.0 mi Calm Calm - N/A   Clear
2:13 AM 67.3 °F - 58.8 °F 74% 30.07 in 10.0 mi Calm Calm - N/A   Clear
2:33 AM 67.1 °F - 59.0 °F 75% 30.08 in 10.0 mi Calm Calm - N/A   Clear
2:53 AM 67.1 °F - 59.0 °F 75% 30.08 in 10.0 mi Calm Calm - N/A   Clear
3:13 AM 66.4 °F - 59.4 °F 78% 30.08 in 10.0 mi Calm Calm - N/A   Clear
3:33 AM 66.2 °F - 58.6 °F 77% 30.08 in 10.0 mi Calm Calm - N/A   Clear
3:53 AM 65.7 °F - 58.5 °F 78% 30.08 in 10.0 mi Calm Calm - N/A   Clear
4:13 AM 65.3 °F - 58.5 °F 78% 30.08 in 10.0 mi Calm Calm - N/A   Clear
4:33 AM 64.8 °F - 58.5 °F 80% 30.09 in 10.0 mi Calm Calm - N/A   Clear
4:53 AM 64.8 °F - 58.5 °F 80% 30.10 in 10.0 mi Calm Calm - N/A   Clear
5:13 AM 64.6 °F - 58.6 °F 81% 30.10 in 10.0 mi Calm Calm - N/A   Clear
5:33 AM 64.0 °F - 58.5 °F 82% 30.10 in 10.0 mi Calm Calm - N/A   Clear
5:53 AM 64.0 °F - 58.3 °F 82% 30.11 in 7.0 mi Calm Calm - N/A   Clear
6:13 AM 64.0 °F - 58.3 °F 82% 30.11 in 7.0 mi Calm Calm - N/A   Clear
6:33 AM 64.4 °F - 59.0 °F 83% 30.11 in 7.0 mi Calm Calm - N/A   Clear
6:53 AM 64.9 °F - 59.4 °F 82% 30.12 in 7.0 mi Calm Calm - N/A   Clear
7:13 AM 66.2 °F - 60.3 °F 81% 30.12 in 7.0 mi Calm Calm - N/A   Clear
7:33 AM 67.3 °F - 60.6 °F 79% 30.12 in 7.0 mi Calm Calm - N/A   Clear
7:53 AM 68.7 °F - 60.8 °F 76% 30.12 in 7.0 mi Calm Calm - N/A   Clear
8:13 AM 70.5 °F - 61.7 °F 74% 30.12 in 7.0 mi Calm Calm - N/A   Clear
8:33 AM 71.6 °F - 61.3 °F 70% 30.11 in 7.0 mi Calm Calm - N/A   Clear
8:53 AM 72.9 °F - 61.9 °F 68% 30.11 in 7.0 mi Calm Calm - N/A   Clear
9:13 AM 73.9 °F - 62.8 °F 68% 30.11 in 7.0 mi Calm Calm - N/A   Clear
9:33 AM 75.2 °F - 63.3 °F 66% 30.11 in 7.0 mi East 3.5 mph - N/A   Clear
9:53 AM 75.7 °F - 62.8 °F 64% 30.10 in 7.0 mi SE 3.5 mph - N/A   Clear
10:13 AM 77.0 °F - 62.1 °F 60% 30.11 in 7.0 mi SE 3.5 mph - N/A   Clear
10:33 AM 78.6 °F - 62.2 °F 57% 30.10 in 7.0 mi SE 4.6 mph - N/A   Clear
10:53 AM 79.0 °F - 60.6 °F 53% 30.10 in 7.0 mi SE 5.8 mph - N/A   Clear
11:13 AM 79.9 °F - 58.6 °F 48% 30.10 in 10.0 mi SSE 6.9 mph - N/A   Clear
11:33 AM 80.1 °F 80.7 °F 58.8 °F 48% 30.10 in 10.0 mi SE 4.6 mph - N/A   Clear
11:53 AM 80.6 °F 80.6 °F 55.9 °F 43% 30.10 in 10.0 mi SSE 6.9 mph - N/A   Clear
12:13 PM 81.1 °F 80.9 °F 55.4 °F 41% 30.10 in 10.0 mi South 9.2 mph 17.3 mph N/A   Clear
12:33 PM 82.4 °F 81.7 °F 55.2 °F 39% 30.09 in 10.0 mi SW 5.8 mph - N/A   Clear
12:53 PM 82.4 °F 81.6 °F 54.1 °F 38% 30.09 in 10.0 mi SSE 4.6 mph - N/A   Clear
1:13 PM 82.8 °F 82.1 °F 55.9 °F 40% 30.08 in 10.0 mi South 9.2 mph - N/A   Clear
1:33 PM 82.9 °F 82.1 °F 55.9 °F 39% 30.07 in 10.0 mi SE 11.5 mph - N/A   Clear
1:53 PM 83.7 °F 82.5 °F 54.9 °F 37% 30.07 in 10.0 mi SSE 10.4 mph - N/A   Clear
2:13 PM 83.5 °F 82.4 °F 54.9 °F 37% 30.07 in 10.0 mi South 10.4 mph - N/A   Clear
2:33 PM 84.4 °F 82.9 °F 54.1 °F 35% 30.06 in 7.0 mi South 11.5 mph - N/A   Clear
2:53 PM 84.9 °F 83.6 °F 55.0 °F 36% 30.06 in 10.0 mi SSE 8.1 mph - N/A   Clear
3:13 PM 84.9 °F 83.3 °F 53.8 °F 34% 30.06 in 10.0 mi SSE 9.2 mph - N/A   Clear
3:33 PM 85.5 °F 83.8 °F 54.0 °F 34% 30.05 in 10.0 mi South 10.4 mph - N/A   Clear
3:53 PM 85.3 °F 83.5 °F 53.4 °F 33% 30.04 in 7.0 mi South 11.5 mph 16.1 mph N/A   Clear
4:13 PM 85.3 °F 83.6 °F 54.1 °F 34% 30.04 in 10.0 mi South 8.1 mph - N/A   Clear
4:33 PM 85.6 °F - 52.2 °F 31% 30.03 in 10.0 mi South 9.2 mph - N/A   Clear
4:53 PM 85.5 °F 83.7 °F 53.1 °F 33% 30.03 in 10.0 mi South 11.5 mph - N/A   Clear
5:13 PM 85.6 °F - 52.9 °F 32% 30.03 in 10.0 mi South 10.4 mph - N/A   Clear
5:33 PM 85.8 °F - 51.1 °F 30% 30.02 in 10.0 mi SSE 10.4 mph - N/A   Clear
5:53 PM 85.8 °F - 52.9 °F 32% 30.02 in 10.0 mi SSE 9.2 mph - N/A   Clear
6:13 PM 85.6 °F - 52.2 °F 31% 30.01 in 10.0 mi SSE 11.5 mph 17.3 mph N/A   Clear
6:33 PM 85.5 °F - 51.4 °F 31% 30.01 in 10.0 mi South 8.1 mph - N/A   Clear
6:53 PM 85.1 °F - 51.1 °F 31% 30.00 in 10.0 mi South 8.1 mph - N/A   Clear
7:13 PM 84.4 °F - 52.2 °F 33% 30.00 in 10.0 mi South 6.9 mph - N/A   Scattered Clouds
7:33 PM 84.0 °F - 52.2 °F 33% 30.00 in 10.0 mi South 8.1 mph - N/A   Scattered Clouds
7:53 PM 82.9 °F 82.0 °F 55.0 °F 38% 29.99 in 10.0 mi South 3.5 mph - N/A   Clear
8:13 PM 82.2 °F 81.6 °F 55.9 °F 40% 29.99 in 10.0 mi SSE 4.6 mph - N/A   Clear
8:33 PM 81.3 °F 81.3 °F 57.7 °F 44% 29.99 in 10.0 mi Calm Calm - N/A   Clear
8:53 PM 79.7 °F - 59.0 °F 49% 29.99 in 10.0 mi South 3.5 mph - N/A   Clear
9:13 PM 79.3 °F - 58.1 °F 48% 29.99 in 10.0 mi South 4.6 mph - N/A   Clear
9:33 PM 78.3 °F - 58.1 °F 50% 30.00 in 10.0 mi South 3.5 mph - N/A   Clear
9:53 PM 77.9 °F - 57.7 °F 50% 30.00 in 10.0 mi South 4.6 mph - N/A   Clear
10:13 PM 77.0 °F - 57.7 °F 51% 30.01 in 10.0 mi South 5.8 mph - N/A   Clear
10:33 PM 77.0 °F - 57.2 °F 50% 30.00 in 10.0 mi South 5.8 mph - N/A   Clear
10:53 PM 76.5 °F - 57.2 °F 51% 30.01 in 10.0 mi South 5.8 mph - N/A   Clear
11:13 PM 75.7 °F - 57.2 °F 52% 30.00 in 10.0 mi South 6.9 mph - N/A   Clear
11:33 PM 75.0 °F - 57.4 °F 54% 30.01 in 10.0 mi South 5.8 mph - N/A   Clear
11:53 PM 75.0 °F - 56.8 °F 53% 30.01 in 10.0 mi South 6.9 mph - N/A   Clear